EW2832 Weather Reports


Display with metric or nautical units.
time (UTC)temp
F
wind
direction
speed
MPH
gust
MPH
rain 1hr
in
rain 24hr
in
rain mn
in
humidity
%
barometer
mb
20260503203500 60 227 21.0 22.0 0.00 0.00 0.00 35 1011.0
20260503202959 60 227 20.0 22.0 0.00 0.00 0.00 36 1011.2
20260503202500 60 224 19.0 21.0 0.00 0.00 0.00 37 1011.1
20260503202000 59 224 20.0 23.0 0.00 0.00 0.00 37 1011.1
20260503201000 59 222 22.0 25.0 0.00 0.00 0.00 33 1011.2
20260503200500 59 225 22.0 23.0 0.00 0.00 0.00 35 1011.3
20260503200000 59 225 21.0 23.0 0.00 0.00 0.00 35 1011.3
20260503195500 59 225 21.0 22.0 0.00 0.00 0.00 37 1011.4
20260503195000 59 225 21.0 23.0 0.00 0.00 0.00 36 1011.4
20260503194500 59 225 21.0 23.0 0.00 0.00 0.00 35 1011.5
20260503193500 59 224 20.0 21.0 0.00 0.00 0.00 36 1011.6
20260503193000 59 224 18.0 21.0 0.00 0.00 0.00 36 1011.7
20260503192459 59 225 18.0 20.0 0.00 0.00 0.00 36 1011.8
20260503192000 59 225 18.0 20.0 0.00 0.00 0.00 36 1011.8
20260503191501 59 224 18.0 19.0 0.00 0.00 0.00 37 1011.9
20260503191000 59 224 18.0 19.0 0.00 0.00 0.00 38 1011.9
20260503190501 58 227 18.0 19.0 0.00 0.00 0.00 40 1012.1
20260503190000 58 226 17.0 19.0 0.00 0.00 0.00 40 1012.1
20260503185500 58 222 15.0 17.0 0.00 0.00 0.00 42 1012.1
20260503185000 57 217 13.0 15.0 0.00 0.00 0.00 44 1012.2
20260503184500 58 213 13.0 15.0 0.00 0.00 0.00 44 1012.5
20260503183959 58 214 13.0 15.0 0.00 0.00 0.00 42 1012.4
20260503183500 58 217 12.0 13.0 0.00 0.00 0.00 45 1012.6
20260503182959 58 218 13.0 13.0 0.00 0.00 0.00 44 1012.6
20260503182500 58 219 13.0 15.0 0.00 0.00 0.00 43 1012.8
20260503181959 58 224 14.0 15.0 0.00 0.00 0.00 42 1012.9
20260503181501 58 224 15.0 15.0 0.00 0.00 0.00 42 1013.0
20260503180959 58 224 15.0 15.0 0.00 0.00 0.00 42 1012.9
20260503180000 58 225 16.0 17.0 0.00 0.00 0.00 39 1013.0
20260503175500 58 225 16.0 18.0 0.00 0.00 0.00 40 1013.2
20260503175001 58 225 17.0 19.0 0.00 0.00 0.00 40 1013.2
20260503174459 57 222 18.0 19.0 0.00 0.00 0.00 41 1013.2
20260503173959 56 223 18.0 20.0 0.00 0.00 0.00 41 1013.3
20260503173500 56 225 18.0 21.0 0.00 0.00 0.00 40 1013.4
20260503173000 56 222 18.0 21.0 0.00 0.00 0.00 39 1013.6
20260503172500 56 219 19.0 21.0 0.00 0.00 0.00 40 1013.6
20260503172001 55 222 20.0 22.0 0.00 0.00 0.00 39 1013.4
20260503171500 55 225 20.0 22.0 0.00 0.00 0.00 39 1013.5
20260503170959 55 225 19.0 21.0 0.00 0.00 0.00 39 1013.6
20260503170500 56 225 19.0 20.0 0.00 0.00 0.00 37 1013.7
20260503150459 52 225 24.0 26.0 0.00 0.00 0.00 33 1014.7
20260503130959 50 248 26.0 27.0 0.00 0.00 0.00 37 1014.9
20260503130459 51 247 26.0 27.0 0.00 0.00 0.00 35 1015.0
20260503110459 46 246 9.0 12.0 0.00 0.00 0.00 30 1015.3
20260503090459 44 238 6.0 7.0 0.00 0.00 0.00 30 1015.3
20260503081500 44 259 5.0 7.0 0.00 0.00 0.00 30 1015.5
20260503080959 44 233 6.0 7.0 0.00 0.00 0.00 30 1015.6
20260503080459 44 248 6.0 7.0 0.00 0.00 0.00 30 1015.6
20260503072500 44 292 5.0 7.0 0.00 0.00 0.00 30 1015.5
20260503071959 44 286 5.0 7.0 0.00 0.00 0.00 30 1015.5
20260503070959 44 314 6.0 7.0 0.00 0.00 0.00 30 1015.5
20260503053958 45 283 6.0 8.0 0.00 0.00 0.00 30 1016.2
20260503053459 45 292 5.0 7.0 0.00 0.00 0.00 30 1016.1
20260503052958 45 291 5.0 6.0 0.00 0.00 0.00 30 1016.1
20260503052500 45 305 5.0 6.0 0.00 0.00 0.00 30 1016.2
20260503051959 45 297 5.0 6.0 0.00 0.00 0.00 30 1016.2
20260503051459 45 290 5.0 6.0 0.00 0.00 0.00 30 1016.3
20260503050958 45 307 6.0 6.0 0.00 0.00 0.00 30 1016.2
20260503050458 45 307 6.0 8.0 0.00 0.00 0.00 30 1016.1
20260503045959 45 279 5.0 8.0 0.00 0.00 0.00 30 1016.1
20260503045458 44 297 5.0 7.0 0.00 0.00 0.00 30 1016.3
20260503044959 45 309 5.0 7.0 0.00 0.00 0.00 30 1016.3
20260503044458 45 294 5.0 6.0 0.00 0.00 0.00 30 1016.3
20260503043959 44 288 5.0 6.0 0.00 0.00 0.00 30 1016.3
20260503043458 44 285 4.0 6.0 0.00 0.00 0.00 30 1016.3
20260503042958 44 284 4.0 6.0 0.00 0.00 0.00 30 1016.3
20260503042458 44 292 4.0 6.0 0.00 0.00 0.00 30 1016.3
20260503041959 44 297 4.0 5.0 0.00 0.00 0.00 30 1016.3
20260503041458 44 300 3.0 4.0 0.00 0.00 0.00 30 1016.2
20260503040958 44 258 3.0 4.0 0.00 0.00 0.00 30 1016.3
20260503040458 44 263 3.0 4.0 0.00 0.00 0.00 30 1016.3
20260503035959 44 279 3.0 4.0 0.00 0.00 0.00 30 1016.4
20260503035459 44 274 3.0 4.0 0.00 0.00 0.00 30 1016.4
20260503033958 44 304 3.0 4.0 0.00 0.00 0.00 30 1016.6
20260503033459 44 293 3.0 4.0 0.00 0.00 0.00 30 1016.6
20260503032959 44 283 4.0 4.0 0.00 0.00 0.00 30 1016.7
20260503032458 44 290 3.0 4.0 0.00 0.00 0.00 30 1016.6
20260503031959 44 295 3.0 4.0 0.00 0.00 0.00 30 1016.6
20260503031458 44 285 3.0 4.0 0.00 0.00 0.00 30 1016.7
20260503030959 44 260 3.0 4.0 0.00 0.00 0.00 30 1016.6
20260503030458 44 268 3.0 4.0 0.00 0.00 0.00 30 1016.7
20260503025959 44 290 4.0 4.0 0.00 0.00 0.00 30 1016.8
20260503024958 44 305 4.0 5.0 0.00 0.00 0.00 30 1016.7
20260503024459 44 278 4.0 4.0 0.00 0.00 0.00 30 1016.8
20260503023959 44 277 4.0 4.0 0.00 0.00 0.00 30 1016.8
20260503022459 44 277 3.0 4.0 0.00 0.01 0.00 30 1017.0
20260503021958 44 294 3.0 4.0 0.00 0.01 0.00 30 1016.8
20260503021458 44 322 3.0 4.0 0.00 0.01 0.00 30 1016.8
20260503020959 44 346 4.0 4.0 0.00 0.01 0.00 30 1016.8
20260503020458 44 343 3.0 4.0 0.00 0.01 0.00 30 1016.8
20260503015459 44 286 3.0 4.0 0.00 0.01 0.00 30 1016.7
20260503014958 45 295 3.0 4.0 0.00 0.01 0.00 30 1016.7
20260503014459 45 294 3.0 4.0 0.00 0.01 0.00 30 1016.8
20260503013958 45 294 3.0 4.0 0.00 0.01 0.00 30 1016.7
20260503013458 45 295 3.0 4.0 0.00 0.01 0.00 30 1016.8
20260503012958 45 294 2.0 4.0 0.00 0.01 0.00 30 1016.7
20260503012459 46 276 2.0 3.0 0.00 0.01 0.00 30 1016.6
20260503012000 46 246 2.0 3.0 0.00 0.01 0.00 30 1016.7
20260503011459 46 270 2.0 2.0 0.00 0.01 0.00 30 1016.6
20260503010958 46 307 2.0 2.0 0.00 0.01 0.00 30 1016.6
20260503010459 46 301 2.0 2.0 0.00 0.01 0.00 30 1016.7
20260503005458 46 270 1.0 2.0 0.00 0.01 0.00 30 1016.6
20260503004959 46 265 2.0 4.0 0.00 0.01 0.00 30 1016.5
20260503003958 46 273 3.0 4.0 0.00 0.01 0.00 30 1016.6
20260503003458 46 289 3.0 4.0 0.00 0.01 0.00 30 1016.5
20260503002959 46 272 2.0 4.0 0.00 0.01 0.00 30 1016.4
20260503002459 46 253 3.0 4.0 0.00 0.01 0.00 30 1016.6
20260503001958 46 269 3.0 4.0 0.00 0.01 0.00 30 1016.4
20260503001458 47 289 3.0 4.0 0.00 0.01 0.00 30 1016.4
20260503000958 47 304 3.0 4.0 0.00 0.01 0.00 30 1016.4
20260502235958 47 299 3.0 4.0 0.00 0.01 0.00 30 1016.4
20260502235458 47 304 3.0 5.0 0.00 0.01 0.00 30 1016.5
20260502234959 47 299 3.0 5.0 0.00 0.01 0.00 30 1016.3
20260502234458 47 288 3.0 5.0 0.00 0.01 0.00 30 1016.3
20260502233959 47 289 4.0 7.0 0.00 0.01 0.00 30 1016.6
20260502233458 47 295 4.0 7.0 0.00 0.01 0.00 30 1016.5
20260502232959 48 329 3.0 4.0 0.00 0.01 0.00 30 1016.4
20260502232458 48 321 3.0 4.0 0.00 0.01 0.00 30 1016.4
20260502231958 49 280 3.0 4.0 0.00 0.01 0.00 30 1016.4
20260502231458 49 252 3.0 4.0 0.00 0.01 0.00 30 1016.5
20260502230959 48 323 4.0 7.0 0.00 0.01 0.00 30 1016.4
20260502230458 47 330 5.0 8.0 0.00 0.01 0.00 30 1016.3
20260502225959 47 332 5.0 8.0 0.00 0.01 0.00 30 1016.4
20260502225458 47 351 4.0 7.0 0.00 0.01 0.00 30 1016.4
20260502224958 47 340 4.0 7.0 0.00 0.01 0.00 30 1016.4
20260502224458 47 326 4.0 7.0 0.00 0.01 0.00 30 1016.6
20260502223958 47 316 5.0 8.0 0.00 0.01 0.00 30 1016.5
20260502223458 47 334 6.0 8.0 0.00 0.01 0.00 30 1016.5
20260502222957 47 337 6.0 8.0 0.00 0.01 0.00 30 1016.6
20260502222458 47 328 6.0 8.0 0.00 0.02 0.00 30 1016.5
20260502221959 48 324 7.0 10.0 0.00 0.02 0.00 30 1016.7
20260502220959 47 345 5.0 6.0 0.00 0.02 0.00 30 1016.4
20260502220459 47 343 4.0 6.0 0.00 0.02 0.00 30 1016.6
20260502215958 47 310 5.0 9.0 0.00 0.02 0.00 30 1016.6
20260502215458 48 324 7.0 9.0 0.00 0.02 0.00 30 1016.6
20260502214958 48 336 6.0 9.0 0.00 0.02 0.00 30 1016.7
20260502214458 48 321 6.0 11.0 0.00 0.02 0.00 30 1016.6
20260502213958 48 302 6.0 11.0 0.00 0.02 0.00 30 1016.5
20260502213458 48 298 4.0 10.0 0.00 0.02 0.00 30 1016.5
20260502212458 48 331 5.0 8.0 0.00 0.02 0.00 30 1016.5
20260502211458 48 275 5.0 8.0 0.00 0.02 0.00 30 1016.5
20260502210958 48 191 5.0 6.0 0.00 0.02 0.00 30 1016.5
20260502210458 48 186 5.0 6.0 0.00 0.02 0.00 30 1016.7
20260502205958 48 221 7.0 12.0 0.00 0.02 0.00 30 1016.6
20260502205458 47 231 9.0 12.0 0.00 0.02 0.00 30 1016.6
20260502204958 47 224 9.0 12.0 0.00 0.02 0.00 30 1016.6
20260502204458 47 225 10.0 12.0 0.00 0.02 0.00 30 1016.6
20260502203959 47 244 8.0 12.0 0.00 0.02 0.00 30 1016.5